Regional Weather Roundup
Issued by NWS

Home | Current Version | Previous Version | Graphics & Text | Print | Product List | Glossary On
Versions: 1 2 3 4 5 6 7 8 9 10 11 12 13 14 15 16 17 18 19 20 21 22 23 24 25 26 27 28 29 30 31 32 33 34 35 36 37 38 39 40 41 42 43 44 45 46 47 48 49 50
000
ASUS43 KLMK 230002
RWRKY
KENTUCKY REGIONAL WEATHER ROUNDUP
NATIONAL WEATHER SERVICE LOUISVILLE KY
800 PM EDT THU JUN 22 2017

NOTE "FAIR" INDICATES FEW OR NO CLOUDS BELOW 12,000 FEET
WITH NO SIGNIFICANT WEATHER AND/OR OBSTRUCTIONS TO VISIBILITY.

KYZ001>023-026-027-061>063-070>075-230100-
WESTERN AND SOUTH CENTRAL KENTUCKY

CITY           SKY/WX    TMP DP  RH WIND       PRES   REMARKS
PADUCAH        CLOUDY    84  73  69 S6        29.76F HX  90
HENDERSON      MOSUNNY   77  73  87 SE7       29.82S
OWENSBORO      PTSUNNY   76  73  91 SE9       29.84F
HOPKINSVILLE   CLOUDY    80  76  86 SE8       29.82F
BOWLING GREEN  PTSUNNY   79  75  87 S12       29.86F
GLASGOW        NOT AVBL
$$

KYZ024-025-028>034-038-045-046-053-230100-
NORTH CENTRAL KENTUCKY

CITY           SKY/WX    TMP DP  RH WIND       PRES   REMARKS
LOUISVILLE/SDF LGT RAIN  72  71  97 SE8       29.88F
LOUISVILLE/LOU LGT RAIN  72  72 100 E5        29.89F FOG
FORT KNOX      CLOUDY    71  71 100 E7        29.87F
$$

KYZ035>037-039>044-047>052-055>060-089>105-230100-
NORTHEAST KENTUCKY

CITY           SKY/WX    TMP DP  RH WIND       PRES   REMARKS
LEXINGTON      HVY RAIN  70  67  90 SE8       29.95S FOG
COVINGTON      LGT RAIN  72  70  93 S9        29.92F
FRANKFORT      HVY RAIN  71  67  87 SE12      29.91F FOG
$$

KYZ054-064>069-076>088-106>120-230100-
SOUTHEAST KENTUCKY

CITY           SKY/WX    TMP DP  RH WIND       PRES   REMARKS
JACKSON        RAIN      70  68  93 SE5       30.00F FOG
LONDON         CLOUDY    72  68  87 S7        29.97S
SOMERSET       CLOUDY    70  70 100 CALM      29.96F
MIDDLESBORO    CLOUDY    73  71  93 CALM      30.01S
MONTICELLO     CLOUDY    75  72  90 NE7       29.96F
$$




USA.gov is the U.S. government's official web portal to all federal, state and local government web resources and services.